Location: Helsinki
(60.1699°N, 24.9384°E)
Time: 04:11:04
(UTC+02:00)

Transit 4A - Pass Details

Date: 01 November 2020
Orbit: 862 x 982 km, 66.8° (Epoch: 25 November)

Event Time Altitude Azimuth Distance (km) Brightness Sun altitude
Rises 16:11:25 0° 229° (SW) 3,633 13.5 0.4°
Reaches altitude 10° 16:13:56 10° 230° (SW) 2,703 12.4 0.1°
Maximum altitude 16:20:18 89° 316° (NW) 987 8.2 -0.6°
Drops below altitude 10° 16:26:47 10° 52° (NE) 2,748 9.7 -1.3°
Enters shadow 16:28:57 - 53° (NE) 3,546 10.3 -1.5°
Sets 16:29:22 0° 53° (NE) 3,697 - -1.6°
